This is the latest recevied weather packets stored in our database for station/object KF4CQ. If no packets are shown the sender has not sent any weather packets the latest 10 day(s).
| Time | Temp. | Humidity | Pressure | Rain* | Wind** | Luminosity | Snow |
|---|---|---|---|---|---|---|---|
| 1777497115 | 32.78° C | 49% | 1012.6 hPa | 0 mm | - | 385 W/m² | - |
| 1777496813 | 32.22° C | 49% | 1012.5 hPa | 0 mm | - | 378 W/m² | - |
| 1777496509 | 32.78° C | 49% | 1012.6 hPa | 0 mm | - | 367 W/m² | - |
| 1777496206 | 32.22° C | 49% | 1012.6 hPa | 0 mm | - | 314 W/m² | - |
| 1777495902 | 32.22° C | 49% | 1012.7 hPa | 0 mm | - | 82 W/m² | - |
| 1777495598 | 32.22° C | 50% | 1012.6 hPa | 0 mm | - | 72 W/m² | - |
| 1777495293 | 32.78° C | 49% | 1012.8 hPa | 0 mm | - | 276 W/m² | - |
| 1777494992 | 32.22° C | 49% | 1013 hPa | 0 mm | - | 507 W/m² | - |
| 1777494688 | 32.78° C | 50% | 1012.9 hPa | 0 mm | - | 505 W/m² | - |
| 1777494386 | 32.78° C | 50% | 1013 hPa | 0 mm | - | 182 W/m² | - |
| 1777494082 | 31.67° C | 51% | 1013 hPa | 0 mm | - | 510 W/m² | - |
| 1777493780 | 32.22° C | 50% | 1013.1 hPa | 0 mm | - | 323 W/m² | - |
| 1777493478 | 32.22° C | 51% | 1013.3 hPa | 0 mm | - | 175 W/m² | - |
| 1777493174 | 33.33° C | 49% | 1013.4 hPa | 0 mm | - | 103 W/m² | - |
| 1777492871 | 32.78° C | 50% | 1013.4 hPa | 0 mm | - | 292 W/m² | - |
| 1777492568 | 32.78° C | 51% | 1013.6 hPa | 0 mm | - | 317 W/m² | - |
| 1777492263 | 31.67° C | 51% | 1013.9 hPa | 0 mm | - | 218 W/m² | - |
| 1777491960 | 31.67° C | 52% | 1013.9 hPa | 0 mm | - | 429 W/m² | - |
| 1777491656 | 31.67° C | 51% | 1014.2 hPa | 0 mm | - | 488 W/m² | - |
| 1777491354 | 32.22° C | 52% | 1014.2 hPa | 0 mm | - | 691 W/m² | - |
| 1777491051 | 31.11° C | 53% | 1014.4 hPa | 0 mm | - | 670 W/m² | - |
| 1777490746 | 32.22° C | 51% | 1014.6 hPa | 0 mm | - | 151 W/m² | - |
| 1777490444 | 32.78° C | 50% | 1014.6 hPa | 0 mm | - | 160 W/m² | - |
| 1777490139 | 32.22° C | 51% | 1015.1 hPa | 0 mm | - | 162 W/m² | - |
| 1777489837 | 31.11° C | 53% | 1015.1 hPa | 0 mm | - | 375 W/m² | - |
* Rain latest hour (hover to see other rain measurements)
** Current wind speed in m/s (hover to see current wind gust speed)